# Mixing ratio of CO2 (xCO2) in dry air measured onboard R/V Ryofu-maru of the Japan Meteorological Agency.,,,,,,,,,,,,,,,,,,,,,,
"# Version 1.0; 16 April, 2004.",,,,,,,,,,,,,,,,,,,,,,
# Measured by Meteorological Research Institute. ,,,,,,,,,,,,,,,,,,,,,,
# PI : H. Y. Inoue,,,,,,,,,,,,,,,,,,,,,,
# Concetrarion scale = MRI87,,,,,,,,,,,,,,,,,,,,,,
# Date and Time = UTC,,,,,,,,,,,,,,,,,,,,,,
Ship,Cruise,Serial No.,Date,,,Time,,Latitude,Longitude,xCO2_Air,F,xCO2_Sea,F,Wind_Dir,Wind_Spd,Atm_Prs,Atm_Tmp.,SST,F,SSS,F,pH2O
,,,Year,Month,Day,Hour,Min.,Deg.,Deg.,ppm,,ppm,,Deg.,m/s,hPa,deg.C,deg.C,,,,hPa
Ryofu-maru_MRI,Ry8706,1,1987,6,9,23,,34.883,139.583,355,4,293.8,2,-99,-9.9,1007.7,-99.9,20.5,2,-9.999,9,23.65
Ryofu-maru_MRI,Ry8706,2,1987,6,10,0,,34.817,139.867,357.6,2,281.5,2,-99,-9.9,1008,-99.9,20.1,2,-9.999,9,23.08
Ryofu-maru_MRI,Ry8706,3,1987,6,10,1,,34.85,139.983,359.9,4,284.4,2,-99,-9.9,1008.7,-99.9,20,2,-9.999,9,22.93
Ryofu-maru_MRI,Ry8706,4,1987,6,10,2,,34.883,140.117,355.5,4,283.4,2,-99,-9.9,1009.6,-99.9,18.8,2,-9.999,9,21.28
Ryofu-maru_MRI,Ry8706,5,1987,6,10,3,,34.917,140.233,-99.9,2,363.1,4,-99,-9.9,1010.2,-99.9,19.54,2,-9.999,9,22.29
Ryofu-maru_MRI,Ry8706,6,1987,6,10,4,,34.85,140.317,-99.9,2,-99.9,9,-99,-9.9,1010.1,-99.9,19.7,2,-9.999,9,22.51
Ryofu-maru_MRI,Ry8706,7,1987,6,10,5,,34.767,140.417,351.7,4,317.4,2,-99,-9.9,1009.6,-99.9,21.98,2,-9.999,9,25.9
Ryofu-maru_MRI,Ry8706,8,1987,6,10,6,,34.7,140.5,352,4,320.3,2,-99,-9.9,1008.8,-99.9,24.02,2,-9.999,9,29.31
Ryofu-maru_MRI,Ry8706,9,1987,6,10,7,,34.65,140.55,349,4,318.7,2,-99,-9.9,1008.1,-99.9,23.66,2,-9.999,9,28.68
Ryofu-maru_MRI,Ry8706,10,1987,6,10,8,,34.6,140.6,358.5,2,317.8,2,-99,-9.9,1007.6,-99.9,24.15,2,-9.999,9,29.54
Ryofu-maru_MRI,Ry8706,11,1987,6,10,9,,34.55,140.65,359.2,2,320.9,2,-99,-9.9,1007.6,-99.9,24.14,2,-9.999,9,29.52
Ryofu-maru_MRI,Ry8706,12,1987,6,10,10,,34.5,140.7,357.6,2,319.1,2,-99,-9.9,1008.1,-99.9,24.2,2,-9.999,9,29.63
Ryofu-maru_MRI,Ry8706,13,1987,6,10,11,,34.45,140.75,358.8,2,323.9,2,-99,-9.9,1008.9,-99.9,24.2,2,-9.999,9,29.63
Ryofu-maru_MRI,Ry8706,14,1987,6,10,12,,34.4,140.8,358.5,2,323,2,-99,-9.9,1009.5,-99.9,25.1,4,-9.999,9,31.26
Ryofu-maru_MRI,Ry8706,15,1987,6,10,13,,34.317,140.833,357.8,2,320.7,2,-99,-9.9,1009.6,-99.9,24.4,2,-9.999,9,29.98
Ryofu-maru_MRI,Ry8706,16,1987,6,10,14,,34.25,140.85,358.3,2,319.4,2,-99,-9.9,1009.4,-99.9,24.3,2,-9.999,9,29.8
Ryofu-maru_MRI,Ry8706,17,1987,6,10,15,,34.167,140.883,358.8,2,320.3,2,-99,-9.9,1008.8,-99.9,24,2,-9.999,9,29.27
Ryofu-maru_MRI,Ry8706,18,1987,6,10,16,,34.1,140.95,358.5,2,318,2,-99,-9.9,1008.1,-99.9,23.8,2,-9.999,9,28.92
Ryofu-maru_MRI,Ry8706,19,1987,6,10,17,,34.033,141.017,359,2,322,2,-99,-9.9,1007.6,-99.9,23.5,2,-9.999,9,28.41
Ryofu-maru_MRI,Ry8706,20,1987,6,10,18,,33.967,141.083,-99.9,2,-99.9,9,-99,-9.9,1007.3,-99.9,23.7,2,-9.999,9,28.75
Ryofu-maru_MRI,Ry8706,21,1987,6,10,19,,33.917,141.117,358.7,2,319.4,2,-99,-9.9,1007.5,-99.9,23.9,2,-9.999,9,29.1
Ryofu-maru_MRI,Ry8706,22,1987,6,10,20,,33.85,141.167,-99.9,2,327.5,4,-99,-9.9,1008,-99.9,23.9,2,-9.999,9,29.1
Ryofu-maru_MRI,Ry8706,23,1987,6,10,21,,33.8,141.2,359.2,2,315,2,-99,-9.9,1008.6,-99.9,23.5,2,-9.999,9,28.41
Ryofu-maru_MRI,Ry8706,24,1987,6,10,22,,33.717,141.283,359.1,2,316.3,2,-99,-9.9,1009.1,-99.9,23.5,2,-9.999,9,28.41
Ryofu-maru_MRI,Ry8706,25,1987,6,10,23,,33.617,141.367,358.1,2,312.6,2,-99,-9.9,1009.5,-99.9,23.3,2,-9.999,9,28.06
Ryofu-maru_MRI,Ry8706,26,1987,6,11,0,,33.533,141.45,358,2,313.5,2,-99,-9.9,1009.9,-99.9,23.3,2,-9.999,9,28.06
Ryofu-maru_MRI,Ry8706,27,1987,6,11,1,,33.5,141.467,358.9,4,313.4,2,-99,-9.9,1010.3,-99.9,23.32,2,-9.999,9,28.1
Ryofu-maru_MRI,Ry8706,28,1987,6,11,2,,33.45,141.467,358.9,4,312.6,2,-99,-9.9,1010.6,-99.9,23.23,2,-9.999,9,27.95
Ryofu-maru_MRI,Ry8706,29,1987,6,11,3,,33.417,141.483,358.1,4,311.5,2,-99,-9.9,1010.9,-99.9,23.12,2,-9.999,9,27.76
Ryofu-maru_MRI,Ry8706,30,1987,6,11,4,,33.383,141.533,359.4,4,312.1,2,-99,-9.9,1011.1,-99.9,23.11,2,-9.999,9,27.74
Ryofu-maru_MRI,Ry8706,31,1987,6,11,5,,33.35,141.567,-99.9,2,311.5,2,-99,-9.9,1011.1,-99.9,23.11,2,-9.999,9,27.74
Ryofu-maru_MRI,Ry8706,32,1987,6,11,6,,33.317,141.617,353.4,2,-99.9,9,-99,-9.9,1011.1,-99.9,23.39,2,-9.999,9,28.22
Ryofu-maru_MRI,Ry8706,33,1987,6,11,7,,33.317,141.85,-99.9,2,-99.9,9,-99,-9.9,1011,-99.9,23.57,2,-9.999,9,28.53
Ryofu-maru_MRI,Ry8706,34,1987,6,11,8,,33.333,142.1,-99.9,2,312.2,2,-99,-9.9,1010.9,-99.9,23.48,2,-9.999,9,28.37
Ryofu-maru_MRI,Ry8706,35,1987,6,11,9,,33.333,142.333,350.2,4,315.7,2,-99,-9.9,1010.9,-99.9,23.21,2,-9.999,9,27.91
Ryofu-maru_MRI,Ry8706,36,1987,6,11,10,,33.3,142.55,351.2,4,317.1,2,-99,-9.9,1011.1,-99.9,23.35,2,-9.999,9,28.15
Ryofu-maru_MRI,Ry8706,37,1987,6,11,11,,33.283,142.75,350.6,4,316.6,2,-99,-9.9,1011.5,-99.9,23.2,2,-9.999,9,27.9
Ryofu-maru_MRI,Ry8706,38,1987,6,11,12,,33.25,142.967,350.6,4,318.7,2,-99,-9.9,1011.6,-99.9,23.2,2,-9.999,9,27.9
Ryofu-maru_MRI,Ry8706,39,1987,6,11,13,,33.183,143.2,350.1,4,317,2,-99,-9.9,1011.5,-99.9,23.5,2,-9.999,9,28.41
Ryofu-maru_MRI,Ry8706,40,1987,6,11,14,,33.1,143.433,349.9,4,317.6,2,-99,-9.9,1011.1,-99.9,23.5,2,-9.999,9,28.41
Ryofu-maru_MRI,Ry8706,41,1987,6,11,15,,33.033,143.667,350.4,2,315.2,2,-99,-9.9,1010.8,-99.9,23.24,2,-9.999,9,27.96
Ryofu-maru_MRI,Ry8706,42,1987,6,11,16,,32.967,143.883,350,4,315.5,2,-99,-9.9,1010.6,-99.9,22.79,2,-9.999,9,27.21
Ryofu-maru_MRI,Ry8706,43,1987,6,11,17,,32.917,144.1,350.7,2,314.3,2,-99,-9.9,1010.5,-99.9,23.06,2,-9.999,9,27.66
Ryofu-maru_MRI,Ry8706,44,1987,6,11,18,,32.85,144.317,351.1,2,313.5,2,-99,-9.9,1010.6,-99.9,22.94,2,-9.999,9,27.46
Ryofu-maru_MRI,Ry8706,45,1987,6,11,19,,32.783,144.55,350.9,2,318,2,-99,-9.9,1010.8,-99.9,23.09,2,-9.999,9,27.71
Ryofu-maru_MRI,Ry8706,46,1987,6,11,20,,32.733,144.767,351.7,2,319.9,2,-99,-9.9,1011.1,-99.9,22.76,2,-9.999,9,27.16
Ryofu-maru_MRI,Ry8706,47,1987,6,11,21,,32.667,145,-99.9,2,-99.9,9,-99,-9.9,1011.3,-99.9,22.79,2,-9.999,9,27.21
Ryofu-maru_MRI,Ry8706,48,1987,6,11,22,,32.6,145.233,357.8,4,314.2,2,-99,-9.9,1011.3,-99.9,23.22,2,-9.999,9,27.93
Ryofu-maru_MRI,Ry8706,49,1987,6,11,23,,32.55,145.45,358.5,4,314.9,2,-99,-9.9,1011.1,-99.9,23.07,2,-9.999,9,27.68
Ryofu-maru_MRI,Ry8706,50,1987,6,12,0,,32.483,145.683,350.3,2,313.6,2,-99,-9.9,1010.9,-99.9,22.78,2,-9.999,9,27.2
Ryofu-maru_MRI,Ry8706,51,1987,6,12,1,,32.433,145.917,354.8,4,314.8,2,-99,-9.9,1010.7,-99.9,22.88,2,-9.999,9,27.36
Ryofu-maru_MRI,Ry8706,52,1987,6,12,2,,32.367,146.133,352.2,2,317.6,2,-99,-9.9,1010.4,-99.9,22.86,2,-9.999,9,27.33
Ryofu-maru_MRI,Ry8706,53,1987,6,12,3,,32.317,146.367,349.8,2,315.4,2,-99,-9.9,1010.2,-99.9,23.13,2,-9.999,9,27.78
Ryofu-maru_MRI,Ry8706,54,1987,6,12,4,,32.25,146.567,352.3,2,319.3,2,-99,-9.9,1010,-99.9,23.16,2,-9.999,9,27.83
Ryofu-maru_MRI,Ry8706,55,1987,6,12,5,,32.183,146.783,349.5,2,323.5,2,-99,-9.9,1009.9,-99.9,22.93,2,-9.999,9,27.44
Ryofu-maru_MRI,Ry8706,56,1987,6,12,6,,32.117,146.983,350.5,2,323.8,2,-99,-9.9,1009.9,-99.9,22.7,2,-9.999,9,27.06
Ryofu-maru_MRI,Ry8706,57,1987,6,12,7,,32.067,147.15,350.9,2,324,2,-99,-9.9,1010,-99.9,22.7,2,-9.999,9,27.06
Ryofu-maru_MRI,Ry8706,58,1987,6,12,8,,32.017,147.333,-99.9,2,315.4,2,-99,-9.9,1010.2,-99.9,22.7,2,-9.999,9,27.06
Ryofu-maru_MRI,Ry8706,59,1987,6,12,9,,31.967,147.5,350.6,2,311.9,2,-99,-9.9,1010.5,-99.9,22.7,2,-9.999,9,27.06
Ryofu-maru_MRI,Ry8706,60,1987,6,12,10,,31.9,147.767,349.9,2,309.2,2,-99,-9.9,1010.7,-99.9,22.8,2,-9.999,9,27.23
Ryofu-maru_MRI,Ry8706,61,1987,6,12,11,,31.85,148.05,350.6,2,309.5,2,-99,-9.9,1010.9,-99.9,22.73,2,-9.999,9,27.11
Ryofu-maru_MRI,Ry8706,62,1987,6,12,12,,31.783,148.317,350.6,2,312.1,2,-99,-9.9,1010.9,-99.9,22.69,2,-9.999,9,27.05
Ryofu-maru_MRI,Ry8706,63,1987,6,12,13,,31.717,148.55,351.1,2,314.9,2,-99,-9.9,1010.7,-99.9,22.87,2,-9.999,9,27.34
Ryofu-maru_MRI,Ry8706,64,1987,6,12,14,,31.633,148.8,350.2,2,313,2,-99,-9.9,1010.4,-99.9,23,2,-9.999,9,27.56
Ryofu-maru_MRI,Ry8706,65,1987,6,12,15,,31.567,149.033,351.1,2,315.4,2,-99,-9.9,1010.1,-99.9,22.5,2,-9.999,9,26.74
Ryofu-maru_MRI,Ry8706,66,1987,6,12,16,,31.5,149.267,351.2,2,318.1,2,-99,-9.9,1009.8,-99.9,22.4,2,-9.999,9,26.57
Ryofu-maru_MRI,Ry8706,67,1987,6,12,17,,31.433,149.517,351.5,2,337.7,2,-99,-9.9,1009.7,-99.9,22.8,2,-9.999,9,27.23
Ryofu-maru_MRI,Ry8706,68,1987,6,12,18,,31.367,149.75,350.7,2,329.5,2,-99,-9.9,1009.6,-99.9,22.9,2,-9.999,9,27.39
Ryofu-maru_MRI,Ry8706,69,1987,6,12,19,,31.317,149.983,350.9,2,325.5,2,-99,-9.9,1009.7,-99.9,22.9,2,-9.999,9,27.39
Ryofu-maru_MRI,Ry8706,70,1987,6,12,20,,31.283,150.217,353.3,4,337.7,2,-99,-9.9,1009.9,-99.9,22.8,2,-9.999,9,27.23
Ryofu-maru_MRI,Ry8706,71,1987,6,12,21,,31.233,150.45,-99.9,2,-99.9,9,-99,-9.9,1010.1,-99.9,23.2,2,-9.999,9,27.9
Ryofu-maru_MRI,Ry8706,72,1987,6,12,22,,31.167,150.683,350.9,2,331.6,2,-99,-9.9,1010.2,-99.9,23.1,2,-9.999,9,27.73
Ryofu-maru_MRI,Ry8706,73,1987,6,12,23,,31.083,150.917,350.6,2,333.8,2,-99,-9.9,1010.3,-99.9,23.1,2,-9.999,9,27.73
Ryofu-maru_MRI,Ry8706,74,1987,6,13,0,,31.017,151.15,350.3,2,337.2,2,-99,-9.9,1010.4,-99.9,23.7,2,-9.999,9,28.75
Ryofu-maru_MRI,Ry8706,75,1987,6,13,1,,30.95,151.4,350.8,2,340.6,2,-99,-9.9,1010.5,-99.9,24.1,2,-9.999,9,29.45
Ryofu-maru_MRI,Ry8706,76,1987,6,13,2,,30.883,151.65,351.7,2,342.7,2,-99,-9.9,1010.5,-99.9,24.5,2,-9.999,9,30.16
Ryofu-maru_MRI,Ry8706,77,1987,6,13,3,,30.817,151.9,350.4,2,340.5,2,-99,-9.9,1010.4,-99.9,24.4,2,-9.999,9,29.98
Ryofu-maru_MRI,Ry8706,78,1987,6,13,4,,30.75,152.133,351.7,2,347.8,2,-99,-9.9,1010.1,-99.9,24.4,2,-9.999,9,29.98
Ryofu-maru_MRI,Ry8706,79,1987,6,13,5,,30.7,152.367,350.8,2,343.2,2,-99,-9.9,1009.8,-99.9,24.2,2,-9.999,9,29.63
Ryofu-maru_MRI,Ry8706,80,1987,6,13,6,,30.633,152.6,351.1,2,341.1,2,-99,-9.9,1009.6,-99.9,24.4,2,-9.999,9,29.98
Ryofu-maru_MRI,Ry8706,81,1987,6,13,7,,30.567,152.833,351.5,2,339.4,2,-99,-9.9,1009.7,-99.9,23.7,2,-9.999,9,28.75
Ryofu-maru_MRI,Ry8706,82,1987,6,13,8,,30.5,153.067,351.1,2,334.8,2,-99,-9.9,1010.1,-99.9,23.2,2,-9.999,9,27.9
Ryofu-maru_MRI,Ry8706,83,1987,6,13,9,,30.433,153.3,349.8,2,344.8,2,-99,-9.9,1010.6,-99.9,23.1,2,-9.999,9,27.73
Ryofu-maru_MRI,Ry8706,84,1987,6,13,10,,30.383,153.517,352.1,2,338.7,2,-99,-9.9,1011.1,-99.9,23.1,2,-9.999,9,27.73
Ryofu-maru_MRI,Ry8706,85,1987,6,13,11,,30.317,153.733,350.5,2,329.8,2,-99,-9.9,1011.5,-99.9,23,2,-9.999,9,27.56
Ryofu-maru_MRI,Ry8706,86,1987,6,13,12,,30.267,153.95,351.8,2,336.2,2,-99,-9.9,1011.6,-99.9,22.6,2,-9.999,9,26.9
Ryofu-maru_MRI,Ry8706,87,1987,6,13,13,,30.2,154.167,351.1,2,332,2,-99,-9.9,1011.3,-99.9,22.6,2,-9.999,9,26.9
Ryofu-maru_MRI,Ry8706,88,1987,6,13,14,,30.15,154.383,351.1,2,328.9,2,-99,-9.9,1010.9,-99.9,22.4,2,-9.999,9,26.57
Ryofu-maru_MRI,Ry8706,89,1987,6,13,15,,30.083,154.6,350.7,2,328.2,2,-99,-9.9,1010.4,-99.9,22.2,2,-9.999,9,26.25
Ryofu-maru_MRI,Ry8706,90,1987,6,13,16,,30.05,154.667,350.2,2,328.5,2,-99,-9.9,1010.1,-99.9,22.2,2,-9.999,9,26.25
Ryofu-maru_MRI,Ry8706,91,1987,6,13,17,,30.033,154.75,353.9,4,334.7,2,-99,-9.9,1010.1,-99.9,22.3,2,-9.999,9,26.41
Ryofu-maru_MRI,Ry8706,92,1987,6,13,18,,30,154.817,-99.9,2,-99.9,9,-99,-9.9,1010.3,-99.9,22.3,2,-9.999,9,26.41
Ryofu-maru_MRI,Ry8706,93,1987,6,13,19,,30,154.867,351.5,2,326.4,2,-99,-9.9,1010.7,-99.9,22.3,2,-9.999,9,26.41
Ryofu-maru_MRI,Ry8706,94,1987,6,13,20,,30,154.917,351.8,2,329.9,2,-99,-9.9,1011.3,-99.9,22.3,2,-9.999,9,26.41
Ryofu-maru_MRI,Ry8706,95,1987,6,13,21,,30,154.967,351.3,2,328.4,2,-99,-9.9,1011.7,-99.9,22.3,2,-9.999,9,26.41
Ryofu-maru_MRI,Ry8706,96,1987,6,13,22,,29.917,154.967,351,2,329.8,2,-99,-9.9,1011.9,-99.9,22.3,2,-9.999,9,26.41
Ryofu-maru_MRI,Ry8706,97,1987,6,13,23,,29.833,154.983,352.3,2,337.8,2,-99,-9.9,1012,-99.9,22.4,2,-9.999,9,26.57
Ryofu-maru_MRI,Ry8706,98,1987,6,14,0,,29.75,154.983,352.6,2,340,2,-99,-9.9,1012.1,-99.9,23.1,2,-9.999,9,27.73
Ryofu-maru_MRI,Ry8706,99,1987,6,14,1,,29.55,154.983,354.3,4,339.7,2,-99,-9.9,1012.2,-99.9,23.2,2,-9.999,9,27.9
Ryofu-maru_MRI,Ry8706,100,1987,6,14,2,,29.367,154.983,354.2,4,328.9,2,-99,-9.9,1012.4,-99.9,22.9,2,-9.999,9,27.39
Ryofu-maru_MRI,Ry8706,101,1987,6,14,3,,29.167,154.983,352.2,2,349,2,-99,-9.9,1012.5,-99.9,24,2,-9.999,9,29.27
Ryofu-maru_MRI,Ry8706,102,1987,6,14,4,,28.983,155,-99.9,2,349.1,2,-99,-9.9,1012.7,-99.9,23.9,2,-9.999,9,29.1
Ryofu-maru_MRI,Ry8706,103,1987,6,14,5,,28.783,155.017,350.7,2,348.2,2,-99,-9.9,1012.8,-99.9,23.9,2,-9.999,9,29.1
Ryofu-maru_MRI,Ry8706,104,1987,6,14,6,,28.6,155.033,-99.9,2,351.1,2,-99,-9.9,1013,-99.9,23.8,2,-9.999,9,28.92
Ryofu-maru_MRI,Ry8706,105,1987,6,14,7,,28.4,155.017,352.2,2,349,2,-99,-9.9,1013.3,-99.9,23.8,2,-9.999,9,28.92
Ryofu-maru_MRI,Ry8706,106,1987,6,14,8,,28.2,155.017,351.3,2,345.9,2,-99,-9.9,1013.6,-99.9,23.9,2,-9.999,9,29.1
Ryofu-maru_MRI,Ry8706,107,1987,6,14,9,,28,155,351.5,2,341.8,2,-99,-9.9,1014,-99.9,24.3,2,-9.999,9,29.8
Ryofu-maru_MRI,Ry8706,108,1987,6,14,10,,27.783,155,351.7,2,340.7,2,-99,-9.9,1014.5,-99.9,24.6,2,-9.999,9,30.34
Ryofu-maru_MRI,Ry8706,109,1987,6,14,11,,27.583,155.017,350.6,2,337.4,2,-99,-9.9,1015,-99.9,24.9,2,-9.999,9,30.89
Ryofu-maru_MRI,Ry8706,110,1987,6,14,12,,27.367,155.017,-99.9,2,338.3,2,-99,-9.9,1015.3,-99.9,25,2,-9.999,9,31.08
Ryofu-maru_MRI,Ry8706,111,1987,6,14,13,,27.15,155.017,358.7,4,336.9,2,-99,-9.9,1015.4,-99.9,25.1,2,-9.999,9,31.26
Ryofu-maru_MRI,Ry8706,112,1987,6,14,14,,26.95,155.017,351.2,2,336.1,2,-99,-9.9,1015.2,-99.9,25.4,2,-9.999,9,31.83
Ryofu-maru_MRI,Ry8706,113,1987,6,14,15,,26.733,155.017,351.3,2,336.1,2,-99,-9.9,1014.9,-99.9,25.2,2,-9.999,9,31.45
Ryofu-maru_MRI,Ry8706,114,1987,6,14,16,,26.517,155.017,351.6,2,340.3,2,-99,-9.9,1014.6,-99.9,25.6,2,-9.999,9,32.21
Ryofu-maru_MRI,Ry8706,115,1987,6,14,17,,26.3,155,351.1,2,337,2,-99,-9.9,1014.4,-99.9,24.9,2,-9.999,9,30.89
Ryofu-maru_MRI,Ry8706,116,1987,6,14,18,,26.083,155,351.6,2,335.5,2,-99,-9.9,1014.6,-99.9,24.9,2,-9.999,9,30.89
Ryofu-maru_MRI,Ry8706,117,1987,6,14,19,,25.883,155,351.6,2,344.6,2,-99,-9.9,1015.2,-99.9,25.2,2,-9.999,9,31.45
Ryofu-maru_MRI,Ry8706,118,1987,6,14,20,,25.683,155.017,351.8,2,350,2,-99,-9.9,1015.9,-99.9,24.7,2,-9.999,9,30.53
Ryofu-maru_MRI,Ry8706,119,1987,6,14,21,,25.483,155.017,351.8,2,351,2,-99,-9.9,1016.5,-99.9,24.8,2,-9.999,9,30.71
Ryofu-maru_MRI,Ry8706,120,1987,6,14,22,,25.317,155,352.9,2,350.5,2,-99,-9.9,1016.7,-99.9,25.3,2,-9.999,9,31.64
Ryofu-maru_MRI,Ry8706,121,1987,6,14,23,,25.167,155,352.3,2,347.2,2,-99,-9.9,1016.7,-99.9,25.7,2,-9.999,9,32.4
Ryofu-maru_MRI,Ry8706,122,1987,6,15,0,,25,154.983,-99.9,2,351,2,-99,-9.9,1016.5,-99.9,25.5,2,-9.999,9,32.02
Ryofu-maru_MRI,Ry8706,123,1987,6,15,1,,25.017,154.967,-99.9,2,352.8,2,-99,-9.9,1016.3,-99.9,25.6,2,-9.999,9,32.21
Ryofu-maru_MRI,Ry8706,124,1987,6,15,2,,25.017,154.95,-99.9,2,354.8,2,-99,-9.9,1016.2,-99.9,25.8,2,-9.999,9,32.59
Ryofu-maru_MRI,Ry8706,125,1987,6,15,3,,25.033,154.933,-99.9,2,361,2,-99,-9.9,1016,-99.9,25.9,2,-9.999,9,32.79
Ryofu-maru_MRI,Ry8706,126,1987,6,15,4,,24.85,154.95,-99.9,2,360.7,2,-99,-9.9,1015.8,-99.9,25.9,2,-9.999,9,32.79
Ryofu-maru_MRI,Ry8706,127,1987,6,15,5,,24.683,154.95,351.7,2,360.3,2,-99,-9.9,1015.6,-99.9,26,2,-9.999,9,32.98
Ryofu-maru_MRI,Ry8706,128,1987,6,15,6,,24.5,154.967,351.1,2,356.2,2,-99,-9.9,1015.4,-99.9,26,2,-9.999,9,32.98
Ryofu-maru_MRI,Ry8706,129,1987,6,15,7,,24.3,154.983,352,2,361,2,-99,-9.9,1015.3,-99.9,26.1,2,-9.999,9,33.18
Ryofu-maru_MRI,Ry8706,130,1987,6,15,8,,24.1,154.983,351.8,2,362.3,2,-99,-9.9,1015.4,-99.9,26.3,2,-9.999,9,33.57
Ryofu-maru_MRI,Ry8706,131,1987,6,15,9,,23.9,155,353.1,2,347.6,2,-99,-9.9,1015.6,-99.9,26.4,2,-9.999,9,33.77
Ryofu-maru_MRI,Ry8706,132,1987,6,15,10,,23.683,155,350.1,2,345.1,2,-99,-9.9,1016,-99.9,26.7,2,-9.999,9,34.37
Ryofu-maru_MRI,Ry8706,133,1987,6,15,11,,23.45,155,352.3,2,349.8,2,-99,-9.9,1016.5,-99.9,26.8,2,-9.999,9,34.57
Ryofu-maru_MRI,Ry8706,134,1987,6,15,12,,23.233,155,351.5,2,344.9,2,-99,-9.9,1016.8,-99.9,27.2,2,-9.999,9,35.4
Ryofu-maru_MRI,Ry8706,135,1987,6,15,13,,23.033,155,352.7,2,346.5,2,-99,-9.9,1016.8,-99.9,27.1,2,-9.999,9,35.19
Ryofu-maru_MRI,Ry8706,136,1987,6,15,14,,22.833,155,352.4,2,339.7,2,-99,-9.9,1016.6,-99.9,26.9,2,-9.999,9,34.78
Ryofu-maru_MRI,Ry8706,137,1987,6,15,15,,22.633,155,351.5,2,343,2,-99,-9.9,1016.3,-99.9,27.5,2,-9.999,9,36.02
Ryofu-maru_MRI,Ry8706,138,1987,6,15,16,,22.417,155,-99.9,2,342.9,2,-99,-9.9,1016.1,-99.9,27.7,2,-9.999,9,36.45
Ryofu-maru_MRI,Ry8706,139,1987,6,15,17,,22.217,155,-99.9,2,342.3,2,-99,-9.9,1016,-99.9,27.8,2,-9.999,9,36.66
Ryofu-maru_MRI,Ry8706,140,1987,6,15,18,,22,155,-99.9,2,343.8,2,-99,-9.9,1016.1,-99.9,27.8,2,-9.999,9,36.66
Ryofu-maru_MRI,Ry8706,141,1987,6,15,19,,21.8,155,-99.9,2,346.6,2,-99,-9.9,1016.3,-99.9,28,2,-9.999,9,37.09
Ryofu-maru_MRI,Ry8706,142,1987,6,15,20,,21.6,155,-99.9,2,343.3,2,-99,-9.9,1016.5,-99.9,28,2,-9.999,9,37.09
Ryofu-maru_MRI,Ry8706,143,1987,6,15,21,,21.4,155,-99.9,2,345.9,2,-99,-9.9,1016.6,-99.9,27.8,2,-9.999,9,36.66
Ryofu-maru_MRI,Ry8706,144,1987,6,15,22,,21.2,155,351.2,2,341.8,2,-99,-9.9,1016.6,-99.9,27.9,2,-9.999,9,36.87
Ryofu-maru_MRI,Ry8706,145,1987,6,15,23,,21,154.983,-99.9,2,345.1,2,-99,-9.9,1016.4,-99.9,27.8,2,-9.999,9,36.66
Ryofu-maru_MRI,Ry8706,146,1987,6,16,0,,20.8,154.983,351.6,2,342.6,2,-99,-9.9,1016,-99.9,27.8,2,-9.999,9,36.66
Ryofu-maru_MRI,Ry8706,147,1987,6,16,1,,20.583,154.983,351.5,2,347.7,2,-99,-9.9,1015.5,-99.9,27.8,2,-9.999,9,36.66
Ryofu-maru_MRI,Ry8706,148,1987,6,16,2,,20.383,154.983,352.3,2,347.1,2,-99,-9.9,1015,-99.9,28,2,-9.999,9,37.09
Ryofu-maru_MRI,Ry8706,149,1987,6,16,3,,20.167,154.983,351.8,2,346.8,2,-99,-9.9,1014.4,-99.9,28.1,2,-9.999,9,37.31
Ryofu-maru_MRI,Ry8706,150,1987,6,16,4,,20.1,154.983,351.4,2,346.7,2,-99,-9.9,1013.9,-99.9,28.2,2,-9.999,9,37.52
Ryofu-maru_MRI,Ry8706,151,1987,6,16,5,,20.05,154.983,352.8,2,349.4,2,-99,-9.9,1013.7,-99.9,28.2,2,-9.999,9,37.52
Ryofu-maru_MRI,Ry8706,152,1987,6,16,6,,19.983,154.983,-99.9,2,346.9,2,-99,-9.9,1013.6,-99.9,28.2,2,-9.999,9,37.52
Ryofu-maru_MRI,Ry8706,153,1987,6,16,7,,19.983,154.95,-99.9,2,348.1,2,-99,-9.9,1013.9,-99.9,28.2,2,-9.999,9,37.52
Ryofu-maru_MRI,Ry8706,154,1987,6,16,8,,19.983,154.933,-99.9,2,344.8,2,-99,-9.9,1014.3,-99.9,28.1,2,-9.999,9,37.31
Ryofu-maru_MRI,Ry8706,155,1987,6,16,9,,19.983,154.9,350.9,2,343.7,4,-99,-9.9,1014.8,-99.9,28,2,-9.999,9,37.09
Ryofu-maru_MRI,Ry8706,156,1987,6,16,10,,19.783,154.933,351.8,2,347.8,2,-99,-9.9,1015.2,-99.9,28,2,-9.999,9,37.09
Ryofu-maru_MRI,Ry8706,157,1987,6,16,11,,19.567,154.95,351.7,2,347.6,2,-99,-9.9,1015.5,-99.9,28.1,2,-9.999,9,37.31
Ryofu-maru_MRI,Ry8706,158,1987,6,16,12,,19.367,154.983,351.6,2,347.5,2,-99,-9.9,1015.5,-99.9,28,2,-9.999,9,37.09
Ryofu-maru_MRI,Ry8706,159,1987,6,16,13,,19.167,154.983,351.2,2,350.6,2,-99,-9.9,1015.2,-99.9,28.3,2,-9.999,9,37.74
Ryofu-maru_MRI,Ry8706,160,1987,6,16,14,,18.95,155,352.1,2,348,2,-99,-9.9,1014.7,-99.9,28.3,2,-9.999,9,37.74
Ryofu-maru_MRI,Ry8706,161,1987,6,16,15,,18.75,155,351.2,2,350,2,-99,-9.9,1014.2,-99.9,28.1,2,-9.999,9,37.31
Ryofu-maru_MRI,Ry8706,162,1987,6,16,16,,18.567,155,351.4,2,348.4,2,-99,-9.9,1014,-99.9,28.3,2,-9.999,9,37.74
Ryofu-maru_MRI,Ry8706,163,1987,6,16,17,,18.367,155,352.1,2,350.2,2,-99,-9.9,1014,-99.9,28.1,2,-9.999,9,37.31
Ryofu-maru_MRI,Ry8706,164,1987,6,16,18,,18.183,155,351,2,347.3,2,-99,-9.9,1014.1,-99.9,28.1,2,-9.999,9,37.31
Ryofu-maru_MRI,Ry8706,165,1987,6,16,19,,17.983,155,351.4,2,348.7,2,-99,-9.9,1014.3,-99.9,28.2,2,-9.999,9,37.52
Ryofu-maru_MRI,Ry8706,166,1987,6,16,20,,17.783,155,351.7,2,348.7,2,-99,-9.9,1014.6,-99.9,28.2,2,-9.999,9,37.52
Ryofu-maru_MRI,Ry8706,167,1987,6,16,21,,17.583,155,351.9,2,346.7,2,-99,-9.9,1014.7,-99.9,28.1,2,-9.999,9,37.31
Ryofu-maru_MRI,Ry8706,168,1987,6,16,22,,17.367,155,352.2,2,351,2,-99,-9.9,1014.7,-99.9,28.3,2,-9.999,9,37.74
Ryofu-maru_MRI,Ry8706,169,1987,6,16,23,,17.167,155,351.5,2,353.6,2,-99,-9.9,1014.5,-99.9,28.4,2,-9.999,9,37.96
Ryofu-maru_MRI,Ry8706,170,1987,6,17,0,,16.95,155,351.9,2,352.7,2,-99,-9.9,1014.1,-99.9,28.4,2,-9.999,9,37.96
Ryofu-maru_MRI,Ry8706,171,1987,6,17,1,,16.75,155,351.1,2,356.1,2,-99,-9.9,1013.6,-99.9,28.3,2,-9.999,9,37.74
Ryofu-maru_MRI,Ry8706,172,1987,6,17,2,,16.533,155,352.5,2,354.7,2,-99,-9.9,1013.1,-99.9,28.4,2,-9.999,9,37.96
Ryofu-maru_MRI,Ry8706,173,1987,6,17,3,,16.333,155,350.4,2,354.7,2,-99,-9.9,1012.6,-99.9,28.3,2,-9.999,9,37.74
Ryofu-maru_MRI,Ry8706,174,1987,6,17,4,,16.15,155,352,2,356.6,2,-99,-9.9,1012.2,-99.9,28.4,2,-9.999,9,37.96
Ryofu-maru_MRI,Ry8706,175,1987,6,17,5,,15.95,154.983,351.9,2,356.9,2,-99,-9.9,1011.9,-99.9,28.4,2,-9.999,9,37.96
Ryofu-maru_MRI,Ry8706,176,1987,6,17,6,,15.767,154.983,352,2,356.2,2,-99,-9.9,1011.8,-99.9,28.4,2,-9.999,9,37.96
Ryofu-maru_MRI,Ry8706,177,1987,6,17,7,,15.55,154.983,-99.9,2,354.5,2,-99,-9.9,1011.9,-99.9,28.4,2,-9.999,9,37.96
Ryofu-maru_MRI,Ry8706,178,1987,6,17,8,,15.35,155,-99.9,2,356.6,2,-99,-9.9,1012.2,-99.9,28.4,2,-9.999,9,37.96
Ryofu-maru_MRI,Ry8706,179,1987,6,17,9,,15.133,155,351.3,2,353.9,2,-99,-9.9,1012.6,-99.9,28.4,2,-9.999,9,37.96
Ryofu-maru_MRI,Ry8706,180,1987,6,17,10,,15.083,154.983,351.5,2,352.7,2,-99,-9.9,1013,-99.9,28.4,2,-9.999,9,37.96
Ryofu-maru_MRI,Ry8706,181,1987,6,17,11,,15.033,154.967,351.9,2,353.1,2,-99,-9.9,1013.3,-99.9,28.4,2,-9.999,9,37.96
Ryofu-maru_MRI,Ry8706,182,1987,6,17,12,,14.983,154.95,351.5,2,352.2,2,-99,-9.9,1013.4,-99.9,28.3,2,-9.999,9,37.74
Ryofu-maru_MRI,Ry8706,183,1987,6,17,13,,14.867,154.95,351.2,2,354.7,2,-99,-9.9,1013.1,-99.9,28.3,2,-9.999,9,37.74
Ryofu-maru_MRI,Ry8706,184,1987,6,17,14,,14.733,154.95,351.8,2,354.8,2,-99,-9.9,1012.6,-99.9,28.2,2,-9.999,9,37.52
Ryofu-maru_MRI,Ry8706,185,1987,6,17,15,,14.617,154.95,351.7,2,356.7,2,-99,-9.9,1012,-99.9,28.2,2,-9.999,9,37.52
Ryofu-maru_MRI,Ry8706,186,1987,6,17,16,,14.417,154.967,351.6,2,359.9,2,-99,-9.9,1011.6,-99.9,28.3,2,-9.999,9,37.74
Ryofu-maru_MRI,Ry8706,187,1987,6,17,17,,14.2,154.983,352.1,2,360.6,2,-99,-9.9,1011.3,-99.9,28.4,2,-9.999,9,37.96
Ryofu-maru_MRI,Ry8706,188,1987,6,17,18,,14,155,351.6,2,354.6,2,-99,-9.9,1011.2,-99.9,28.5,2,-9.999,9,38.18
Ryofu-maru_MRI,Ry8706,189,1987,6,17,19,,13.967,154.983,351.8,2,355.1,2,-99,-9.9,1011.3,-99.9,28.5,2,-9.999,9,38.18
Ryofu-maru_MRI,Ry8706,190,1987,6,17,20,,13.917,154.983,355.1,4,358.5,2,-99,-9.9,1011.5,-99.9,28.5,2,-9.999,9,38.18
Ryofu-maru_MRI,Ry8706,191,1987,6,17,21,,13.883,154.967,351,2,358.6,2,-99,-9.9,1011.7,-99.9,28.5,2,-9.999,9,38.18
Ryofu-maru_MRI,Ry8706,192,1987,6,17,22,,13.667,154.983,352.4,2,356.4,2,-99,-9.9,1011.8,-99.9,28.5,2,-9.999,9,38.18
Ryofu-maru_MRI,Ry8706,193,1987,6,17,23,,13.467,154.983,351.5,2,354.5,2,-99,-9.9,1011.7,-99.9,28.5,2,-9.999,9,38.18
Ryofu-maru_MRI,Ry8706,194,1987,6,18,0,,13.25,155,351.5,2,357.6,2,-99,-9.9,1011.5,-99.9,28.6,2,-9.999,9,38.41
Ryofu-maru_MRI,Ry8706,195,1987,6,18,1,,13.167,155,351.5,2,360.3,2,-99,-9.9,1011.2,-99.9,28.8,2,-9.999,9,38.85
Ryofu-maru_MRI,Ry8706,196,1987,6,18,2,,13.067,154.983,352.2,2,359.4,2,-99,-9.9,1010.9,-99.9,28.8,2,-9.999,9,38.85
Ryofu-maru_MRI,Ry8706,197,1987,6,18,3,,12.983,154.983,353.3,2,360.4,2,-99,-9.9,1010.5,-99.9,28.7,2,-9.999,9,38.63
Ryofu-maru_MRI,Ry8706,198,1987,6,18,4,,12.783,154.983,351.2,2,360.6,2,-99,-9.9,1010.2,-99.9,28.7,2,-9.999,9,38.63
Ryofu-maru_MRI,Ry8706,199,1987,6,18,5,,12.6,154.983,351,2,362.9,2,-99,-9.9,1010,-99.9,28.7,2,-9.999,9,38.63
Ryofu-maru_MRI,Ry8706,200,1987,6,18,6,,12.4,154.983,351.9,2,361.7,2,-99,-9.9,1009.9,-99.9,28.7,2,-9.999,9,38.63
Ryofu-maru_MRI,Ry8706,201,1987,6,18,7,,12.267,154.983,352.2,2,358.3,2,-99,-9.9,1010.1,-99.9,28.7,2,-9.999,9,38.63
Ryofu-maru_MRI,Ry8706,202,1987,6,18,8,,12.133,154.983,352.2,2,357.9,2,-99,-9.9,1010.4,-99.9,28.7,2,-9.999,9,38.63
Ryofu-maru_MRI,Ry8706,203,1987,6,18,9,,12,154.983,-99.9,2,359.2,2,-99,-9.9,1010.9,-99.9,28.7,2,-9.999,9,38.63
Ryofu-maru_MRI,Ry8706,204,1987,6,18,10,,11.85,154.983,-99.9,2,358.6,2,-99,-9.9,1011.4,-99.9,28.7,2,-9.999,9,38.63
Ryofu-maru_MRI,Ry8706,205,1987,6,18,11,,11.683,154.983,-99.9,2,355.8,2,-99,-9.9,1011.9,-99.9,28.6,2,-9.999,9,38.41
Ryofu-maru_MRI,Ry8706,206,1987,6,18,12,,11.533,154.983,351.6,2,354.5,2,-99,-9.9,1012,-99.9,28.7,2,-9.999,9,38.63
Ryofu-maru_MRI,Ry8706,207,1987,6,18,13,,11.35,154.983,351.5,2,355.3,2,-99,-9.9,1011.7,-99.9,28.7,2,-9.999,9,38.63